Location: Hiram
(41.3130°N, 81.1440°W)
Time: 20:23:10
(UTC-04:00)

Iridium 62 - Visible Passes

Search period start: 22 March 2017 00:00
Search period end: 01 April 2017 00:00
Orbit: 776 x 779 km, 86.4° (Epoch: 21 March)

Date Brightness Start Highest point End Pass type
(mag) Time Alt. Az. Time Alt. Az. Time Alt. Az.
22 Mar 7.4 06:13:49 10° SSE 06:18:36 39° E 06:23:25 10° NNE visible
23 Mar 8.5 05:41:27 10° SE 05:45:19 22° E 05:49:13 10° NNE visible
24 Mar 9.1 05:10:27 10° E 05:12:10 12° ENE 05:13:54 10° NE visible
24 Mar 5.8 06:46:54 10° S 06:52:06 80° W 06:57:21 10° N visible
25 Mar 6.6 06:13:33 10° SSE 06:18:38 56° E 06:23:44 10° NNE visible
26 Mar 7.8 05:40:47 10° SE 05:45:17 31° E 05:49:48 10° NNE visible
27 Mar 8.7 05:08:46 10° ESE 05:12:03 17° ENE 05:15:20 10° NE visible
27 Mar 6.0 06:47:09 10° SSW 06:52:14 55° W 06:57:23 10° N visible
28 Mar 6.0 06:13:30 10° S 06:18:42 82° E 06:23:56 10° N visible
29 Mar 7.0 05:40:22 10° SSE 05:45:16 44° E 05:50:12 10° NNE visible
30 Mar 8.1 05:07:51 10° SE 05:11:58 24° E 05:16:06 10° NNE visible
31 Mar 8.8 04:36:23 10° ESE 04:38:47 13° ENE 04:41:12 10° NE visible
31 Mar 5.8 06:13:38 10° S 06:18:49 70° W 06:24:02 10° N visible
